Time,TemperatureF,DewpointF,PressureIn,WindDirection,WindDirectionDegrees,WindSpeedMPH,WindSpeedGustMPH,Humidity,HourlyPrecipIn,Conditions,Clouds,dailyrainin,SoftwareType,DateUTC
2013-10-02 00:10:00,70.8,32.0,29.72,SSW,202,0.0,1.0,24,0.00,,,0.00,weatherlink.com 1.10,2013-10-02 05:10:00,
2013-10-02 00:25:00,72.3,31.0,29.71,SSW,207,1.0,3.0,22,0.00,,,0.00,weatherlink.com 1.10,2013-10-02 05:25:00,
2013-10-02 00:40:00,72.3,31.0,29.71,NW,309,0.0,2.0,22,0.00,,,0.00,weatherlink.com 1.10,2013-10-02 05:40:00,
2013-10-02 00:55:00,71.2,31.0,29.71,NW,309,0.0,1.0,23,0.00,,,0.00,weatherlink.com 1.10,2013-10-02 05:55:00,
2013-10-02 01:10:00,70.1,32.0,29.70,NNW,339,0.0,2.0,24,0.00,,,0.00,weatherlink.com 1.10,2013-10-02 06:10:00,
2013-10-02 01:25:00,70.5,32.0,29.70,NNE,18,0.0,2.0,24,0.00,,,0.00,weatherlink.com 1.10,2013-10-02 06:25:00,
2013-10-02 01:40:00,69.3,33.0,29.71,North,5,0.0,3.0,26,0.00,,,0.00,weatherlink.com 1.10,2013-10-02 06:40:00,
2013-10-02 01:55:00,71.7,31.0,29.71,East,83,1.0,2.0,22,0.00,,,0.00,weatherlink.com 1.10,2013-10-02 06:55:00,
2013-10-02 02:09:00,70.4,32.0,29.70,East,84,0.0,2.0,24,0.00,,,0.00,weatherlink.com 1.10,2013-10-02 07:09:00,
2013-10-02 02:25:00,70.9,32.0,29.70,East,84,0.0,2.0,24,0.00,,,0.00,weatherlink.com 1.10,2013-10-02 07:25:00,
2013-10-02 02:40:00,70.9,31.0,29.70,East,85,0.0,3.0,23,0.00,,,0.00,weatherlink.com 1.10,2013-10-02 07:40:00,
2013-10-02 02:55:00,70.5,31.0,29.70,East,85,0.0,0.0,23,0.00,,,0.00,weatherlink.com 1.10,2013-10-02 07:55:00,
2013-10-02 03:10:00,67.6,32.0,29.70,East,85,0.0,0.0,27,0.00,,,0.00,weatherlink.com 1.10,2013-10-02 08:10:00,
2013-10-02 03:25:00,68.5,31.0,29.70,East,85,0.0,2.0,25,0.00,,,0.00,weatherlink.com 1.10,2013-10-02 08:25:00,
2013-10-02 03:40:00,69.6,30.0,29.70,East,82,0.0,2.0,23,0.00,,,0.00,weatherlink.com 1.10,2013-10-02 08:40:00,
2013-10-02 03:55:00,69.0,31.0,29.70,East,82,0.0,1.0,24,0.00,,,0.00,weatherlink.com 1.10,2013-10-02 08:55:00,
2013-10-02 04:10:00,68.1,30.0,29.69,East,79,0.0,2.0,24,0.00,,,0.00,weatherlink.com 1.10,2013-10-02 09:10:00,
2013-10-02 04:25:00,67.6,30.0,29.69,East,80,0.0,2.0,25,0.00,,,0.00,weatherlink.com 1.10,2013-10-02 09:25:00,
2013-10-02 04:40:00,67.2,30.0,29.69,WSW,238,1.0,4.0,25,0.00,,,0.00,weatherlink.com 1.10,2013-10-02 09:40:00,
2013-10-02 04:55:00,67.7,30.0,29.69,WNW,298,0.0,2.0,24,0.00,,,0.00,weatherlink.com 1.10,2013-10-02 09:55:00,
2013-10-02 05:10:00,67.1,30.0,29.69,WNW,289,0.0,2.0,25,0.00,,,0.00,weatherlink.com 1.10,2013-10-02 10:10:00,
2013-10-02 05:25:00,67.1,29.0,29.69,WNW,286,0.0,3.0,24,0.00,,,0.00,weatherlink.com 1.10,2013-10-02 10:25:00,
2013-10-02 05:40:00,67.5,28.0,29.69,WSW,253,0.0,8.0,23,0.00,,,0.00,weatherlink.com 1.10,2013-10-02 10:40:00,
2013-10-02 05:55:00,67.7,28.0,29.69,WNW,286,2.0,4.0,23,0.00,,,0.00,weatherlink.com 1.10,2013-10-02 10:55:00,
2013-10-02 06:10:00,66.4,28.0,29.70,West,274,0.0,4.0,24,0.00,,,0.00,weatherlink.com 1.10,2013-10-02 11:10:00,
2013-10-02 06:25:00,67.3,28.0,29.70,WSW,254,0.0,6.0,23,0.00,,,0.00,weatherlink.com 1.10,2013-10-02 11:25:00,
2013-10-02 06:40:00,67.1,28.0,29.70,WNW,294,1.0,4.0,23,0.00,,,0.00,weatherlink.com 1.10,2013-10-02 11:40:00,
2013-10-02 06:55:00,67.1,28.0,29.71,WNW,294,0.0,2.0,23,0.00,,,0.00,weatherlink.com 1.10,2013-10-02 11:55:00,
2013-10-02 07:10:00,67.0,29.0,29.71,WNW,290,0.0,2.0,24,0.00,,,0.00,weatherlink.com 1.10,2013-10-02 12:10:00,
2013-10-02 07:25:00,66.7,29.0,29.71,WNW,291,0.0,2.0,24,0.00,,,0.00,weatherlink.com 1.10,2013-10-02 12:25:00,
2013-10-02 07:40:00,67.2,28.0,29.71,WNW,288,0.0,1.0,23,0.00,,,0.00,weatherlink.com 1.10,2013-10-02 12:40:00,
2013-10-02 07:55:00,66.8,29.0,29.72,WNW,288,0.0,1.0,24,0.00,,,0.00,weatherlink.com 1.10,2013-10-02 12:55:00,
2013-10-02 08:10:00,66.9,28.0,29.72,WNW,287,0.0,2.0,23,0.00,,,0.00,weatherlink.com 1.10,2013-10-02 13:10:00,
2013-10-02 08:25:00,66.9,29.0,29.72,ESE,107,0.0,2.0,24,0.00,,,0.00,weatherlink.com 1.10,2013-10-02 13:25:00,
2013-10-02 08:40:00,67.6,29.0,29.73,ESE,108,0.0,2.0,24,0.00,,,0.00,weatherlink.com 1.10,2013-10-02 13:40:00,
2013-10-02 08:55:00,69.5,28.0,29.73,NNW,343,1.0,3.0,21,0.00,,,0.00,weatherlink.com 1.10,2013-10-02 13:55:00,
2013-10-02 09:10:00,70.3,30.0,29.74,NNW,343,0.0,1.0,22,0.00,,,0.00,weatherlink.com 1.10,2013-10-02 14:10:00,
2013-10-02 09:26:00,72.0,30.0,29.74,NNW,335,0.0,2.0,21,0.00,,,0.00,weatherlink.com 1.10,2013-10-02 14:26:00,
2013-10-02 09:41:00,73.2,32.0,29.74,East,88,0.0,2.0,22,0.00,,,0.00,weatherlink.com 1.10,2013-10-02 14:41:00,
2013-10-02 09:56:00,75.0,31.0,29.75,East,98,1.0,2.0,20,0.00,,,0.00,weatherlink.com 1.10,2013-10-02 14:56:00,
2013-10-02 10:11:00,76.9,30.0,29.75,ESE,103,0.0,2.0,18,0.00,,,0.00,weatherlink.com 1.10,2013-10-02 15:11:00,
2013-10-02 10:26:00,78.6,30.0,29.75,SE,131,0.0,3.0,17,0.00,,,0.00,weatherlink.com 1.10,2013-10-02 15:26:00,
2013-10-02 10:41:00,79.7,30.0,29.75,SE,133,2.0,2.0,16,0.00,,,0.00,weatherlink.com 1.10,2013-10-02 15:41:00,
2013-10-02 10:56:00,80.8,27.0,29.75,SE,128,0.0,2.0,14,0.00,,,0.00,weatherlink.com 1.10,2013-10-02 15:56:00,
2013-10-02 11:11:00,82.3,30.0,29.75,ESE,121,0.0,5.0,15,0.00,,,0.00,weatherlink.com 1.10,2013-10-02 16:11:00,
2013-10-02 11:26:00,82.9,32.0,29.75,SW,215,2.0,4.0,16,0.00,,,0.00,weatherlink.com 1.10,2013-10-02 16:26:00,
2013-10-02 11:41:00,84.9,32.0,29.75,SE,124,0.0,3.0,15,0.00,,,0.00,weatherlink.com 1.10,2013-10-02 16:41:00,
2013-10-02 11:56:00,84.8,32.0,29.74,West,264,0.0,9.0,15,0.00,,,0.00,weatherlink.com 1.10,2013-10-02 16:56:00,
2013-10-02 12:11:00,85.6,33.0,29.73,WNW,294,5.0,11.0,15,0.00,,,0.00,weatherlink.com 1.10,2013-10-02 17:11:00,
2013-10-02 12:26:00,86.3,33.0,29.73,WSW,252,5.0,9.0,15,0.00,,,0.00,weatherlink.com 1.10,2013-10-02 17:26:00,
2013-10-02 12:41:00,86.7,35.0,29.72,West,261,6.0,10.0,16,0.00,,,0.00,weatherlink.com 1.10,2013-10-02 17:41:00,
2013-10-02 12:56:00,87.7,36.0,29.72,West,265,3.0,11.0,16,0.00,,,0.00,weatherlink.com 1.10,2013-10-02 17:56:00,
2013-10-02 13:12:00,87.0,34.0,29.71,West,267,4.0,15.0,15,0.00,,,0.00,weatherlink.com 1.10,2013-10-02 18:12:00,
2013-10-02 13:27:00,87.9,33.0,29.70,WSW,257,5.0,14.0,14,0.00,,,0.00,weatherlink.com 1.10,2013-10-02 18:27:00,
2013-10-02 13:42:00,88.0,33.0,29.70,WSW,254,11.0,11.0,14,0.00,,,0.00,weatherlink.com 1.10,2013-10-02 18:42:00,
2013-10-02 13:57:00,87.7,33.0,29.69,West,264,5.0,13.0,14,0.00,,,0.00,weatherlink.com 1.10,2013-10-02 18:57:00,
2013-10-02 14:12:00,89.5,34.0,29.69,SSE,167,2.0,5.0,14,0.00,,,0.00,weatherlink.com 1.10,2013-10-02 19:12:00,
2013-10-02 14:27:00,88.9,34.0,29.68,West,278,3.0,15.0,14,0.00,,,0.00,weatherlink.com 1.10,2013-10-02 19:27:00,
2013-10-02 14:42:00,88.6,35.0,29.67,West,280,4.0,12.0,15,0.00,,,0.00,weatherlink.com 1.10,2013-10-02 19:42:00,
2013-10-02 14:57:00,89.1,39.0,29.66,North,11,0.0,13.0,17,0.00,,,0.00,weatherlink.com 1.10,2013-10-02 19:57:00,
2013-10-02 15:12:00,89.7,34.0,29.66,West,273,6.0,16.0,14,0.00,,,0.00,weatherlink.com 1.10,2013-10-02 20:12:00,
2013-10-02 15:27:00,89.9,36.0,29.65,West,269,8.0,11.0,15,0.00,,,0.00,weatherlink.com 1.10,2013-10-02 20:27:00,
2013-10-02 15:42:00,90.0,35.0,29.64,WNW,290,6.0,13.0,14,0.00,,,0.00,weatherlink.com 1.10,2013-10-02 20:42:00,
2013-10-02 15:57:00,89.3,36.0,29.64,West,260,4.0,9.0,15,0.00,,,0.00,weatherlink.com 1.10,2013-10-02 20:57:00,
2013-10-02 16:12:00,89.3,32.0,29.64,West,259,5.0,9.0,13,0.00,,,0.00,weatherlink.com 1.10,2013-10-02 21:12:00,
2013-10-02 16:27:00,90.9,35.0,29.64,WSW,249,2.0,7.0,14,0.00,,,0.00,weatherlink.com 1.10,2013-10-02 21:27:00,
2013-10-02 16:42:00,90.3,33.0,29.63,South,185,0.0,13.0,13,0.00,,,0.00,weatherlink.com 1.10,2013-10-02 21:42:00,
2013-10-02 16:57:00,90.4,35.0,29.62,WSW,250,0.0,7.0,14,0.00,,,0.00,weatherlink.com 1.10,2013-10-02 21:57:00,
2013-10-02 17:12:00,90.3,35.0,29.62,WSW,246,5.0,11.0,14,0.00,,,0.00,weatherlink.com 1.10,2013-10-02 22:12:00,
2013-10-02 17:27:00,87.2,34.0,29.62,SW,236,3.0,7.0,15,0.00,,,0.00,weatherlink.com 1.10,2013-10-02 22:27:00,
2013-10-02 17:42:00,86.9,36.0,29.62,WSW,237,0.0,4.0,16,0.00,,,0.00,weatherlink.com 1.10,2013-10-02 22:42:00,
2013-10-02 17:57:00,88.3,35.0,29.62,WNW,292,3.0,8.0,15,0.00,,,0.00,weatherlink.com 1.10,2013-10-02 22:57:00,
2013-10-02 18:12:00,86.6,35.0,29.62,WSW,246,2.0,10.0,16,0.00,,,0.00,weatherlink.com 1.10,2013-10-02 23:12:00,
2013-10-02 18:27:00,87.5,36.0,29.62,West,267,1.0,7.0,16,0.00,,,0.00,weatherlink.com 1.10,2013-10-02 23:27:00,
2013-10-02 18:42:00,85.8,36.0,29.62,West,265,3.0,5.0,17,0.00,,,0.00,weatherlink.com 1.10,2013-10-02 23:42:00,
2013-10-02 18:57:00,86.3,37.0,29.62,West,277,2.0,5.0,17,0.00,,,0.00,weatherlink.com 1.10,2013-10-02 23:57:00,
2013-10-02 19:12:00,85.9,36.0,29.62,West,277,0.0,4.0,17,0.00,,,0.00,weatherlink.com 1.10,2013-10-03 00:12:00,
2013-10-02 19:27:00,85.4,36.0,29.62,West,275,2.0,4.0,17,0.00,,,0.00,weatherlink.com 1.10,2013-10-03 00:27:00,
2013-10-02 19:42:00,83.4,37.0,29.62,West,275,0.0,2.0,19,0.00,,,0.00,weatherlink.com 1.10,2013-10-03 00:42:00,
2013-10-02 19:57:00,82.5,36.0,29.63,West,275,0.0,0.0,19,0.00,,,0.00,weatherlink.com 1.10,2013-10-03 00:57:00,
2013-10-02 20:12:00,81.6,37.0,29.63,West,275,0.0,2.0,20,0.00,,,0.00,weatherlink.com 1.10,2013-10-03 01:12:00,
2013-10-02 20:27:00,80.5,36.0,29.64,West,275,0.0,2.0,20,0.00,,,0.00,weatherlink.com 1.10,2013-10-03 01:27:00,
2013-10-02 20:42:00,79.3,38.0,29.64,SE,129,2.0,4.0,23,0.00,,,0.00,weatherlink.com 1.10,2013-10-03 01:42:00,
2013-10-02 20:57:00,78.7,39.0,29.64,ESE,106,0.0,8.0,24,0.00,,,0.00,weatherlink.com 1.10,2013-10-03 01:57:00,
2013-10-02 21:12:00,77.5,40.0,29.65,ESE,109,2.0,5.0,26,0.00,,,0.00,weatherlink.com 1.10,2013-10-03 02:12:00,
2013-10-02 21:27:00,77.8,40.0,29.65,ESE,123,1.0,5.0,26,0.00,,,0.00,weatherlink.com 1.10,2013-10-03 02:27:00,
2013-10-02 21:42:00,76.0,40.0,29.66,ESE,105,4.0,5.0,27,0.00,,,0.00,weatherlink.com 1.10,2013-10-03 02:42:00,
2013-10-02 21:57:00,75.5,40.0,29.66,ESE,119,9.0,11.0,28,0.00,,,0.00,weatherlink.com 1.10,2013-10-03 02:57:00,
2013-10-02 22:12:00,75.3,41.0,29.66,ESE,123,1.0,12.0,29,0.00,,,0.00,weatherlink.com 1.10,2013-10-03 03:12:00,
2013-10-02 22:27:00,74.7,42.0,29.66,SE,124,3.0,7.0,31,0.00,,,0.00,weatherlink.com 1.10,2013-10-03 03:27:00,
2013-10-02 22:42:00,74.9,43.0,29.66,ESE,113,2.0,8.0,32,0.00,,,0.00,weatherlink.com 1.10,2013-10-03 03:42:00,
2013-10-02 22:58:00,74.1,45.0,29.66,ESE,111,9.0,10.0,35,0.00,,,0.00,weatherlink.com 1.10,2013-10-03 03:58:00,
2013-10-02 23:12:00,73.9,47.0,29.66,SE,126,4.0,10.0,38,0.00,,,0.00,weatherlink.com 1.10,2013-10-03 04:12:00,
2013-10-02 23:27:00,72.9,47.0,29.66,ESE,118,1.0,1.0,40,0.00,,,0.00,weatherlink.com 1.10,2013-10-03 04:27:00,
2013-10-02 23:42:00,73.0,48.0,29.66,ESE,120,3.0,6.0,42,0.00,,,0.00,weatherlink.com 1.10,2013-10-03 04:42:00,
2013-10-02 23:57:00,72.8,48.0,29.66,ESE,113,0.0,5.0,41,0.00,,,0.00,weatherlink.com 1.10,2013-10-03 04:57:00,